CAPE
0 0 0 0 0 0 0 0 0 0 0 511 592 534 595 669 697 412 16 271 726 856 990 999 957 1049 1143 1069 947 852 812 707 567 470 358 252 166 91 22 0 0 0 0 0 0 0 0 0 0
0 0 0 0 0 0 0 0 0 0 0 414 442 337 424 567 0 14 211 504 648 621 697 730 807 944 920 797 714 661 615 402 259 157 97 47 2 0 0 0 0 0 0 0 0 0 0 0 0
0 0 0 0 0 0 0 0 0 0 0 470 401 203 211 72 0 16 73 286 314 348 474 582 614 671 623 501 420 345 197 103 36 5 0 0 0 0 0 0 0 0 0 0 0 0 0 0 0
0 0 0 0 0 0 0 0 0 0 0 23 158 361 40 0 16 0 96 111 141 137 231 262 271 286 255 169 85 26 1 0 0 0 0 0 0 0 0 0 0 0 0 0 0 0 0 0 0
0 0 0 0 0 0 0 0 0 0 0 0 99 81 64 0 0 2 11 12 45 22 26 42 55 60 36 2 1 2 0 0 0 0 0 0 0 0 0 0 0 0 0 0 0 0 0 0 0
0 0 0 0 0 0 0 0 0 0 0 0 42 33 17 0 0 0 0 0 0 0 0 0 0 0 1 3 1 0 0 0 0 0 0 0 0 0 0 0 0 0 0 0 0 0 0 0 0
0 0 0 0 0 0 0 0 0 0 0 0 0 9 0 2 0 0 0 0 0 0 0 0 1 5 3 0 0 0 0 0 0 0 0 0 0 0 0 0 0 0 0 0 0 0 0 0 0
0 0 0 0 0 0 0 0 0 0 2 0 0 11 0 1 0 0 0 0 0 0 0 0 0 0 0 0 0 0 0 0 0 0 0 0 0 0 0 0 0 0 0 0 0 0 0 0 0
0 0 0 0 0 0 0 0 0 0 11 0 0 0 0 0 0 0 0 0 0 0 0 0 0 0 0 0 0 0 0 0 0 0 0 0 0 0 0 0 0 0 0 0 0 0 0 0 0
0 0 0 0 0 0 0 0 0 0 0 2 0 0 0 0 0 0 0 0 0 0 0 0 0 0 0 0 0 0 0 0 0 0 0 0 0 0 0 0 0 0 0 0 0 0 0 0 0
0 0 0 0 0 0 0 0 0 0 0 0 7 0 0 0 0 0 0 0 0 0 0 0 0 0 0 0 0 0 0 0 0 0 0 0 0 0 0 0 0 0 0 0 0 0 0 0 0
0 0 0 0 0 0 0 0 0 0 0 0 0 0 0 0 0 0 0 0 0 0 0 0 0 0 0 0 0 0 0 0 0 0 0 0 0 0 0 0 0 0 0 0 0 0 0 0 0
0 0 0 0 0 0 0 0 0 0 0 0 0 0 0 0 0 0 0 0 0 0 0 0 0 0 0 0 0 0 0 0 0 0 0 0 0 0 0 0 0 0 0 0 0 0 0 0 0
0 0 0 0 0 0 0 0 0 0 0 0 0 0 0 0 0 0 0 0 0 0 0 0 0 0 0 0 0 0 0 0 0 0 0 0 0 0 0 0 0 0 0 0 0 0 0 0 0
0 0 0 0 0 0 0 0 0 0 0 0 0 0 0 0 0 0 0 0 0 0 0 0 0 0 0 0 0 0 0 0 0 0 0 0 0 0 0 0 0 0 0 0 0 0 0 0 0
0 0 0 0 0 0 0 0 0 0 0 0 0 0 0 0 0 0 0 0 0 0 0 0 0 0 0 0 0 0 0 0 0 0 0 0 0 0 0 0 0 0 0 0 0 0 0 0 0
0 0 0 0 0 0 0 0 0 0 0 0 0 0 0 0 0 0 0 0 0 0 0 0 0 0 0 0 0 0 0 0 0 0 0 0 0 0 0 0 0 0 0 0 0 0 0 0 0
0 0 0 0 0 0 0 0 0 0 0 0 0 0 0 0 0 0 0 0 0 0 0 0 0 0 0 0 0 0 0 0 0 0 0 0 0 0 0 0 0 0 0 0 0 0 0 0 0
0 0 0 0 0 0 0 0 0 0 0 0 0 0 0 0 0 0 0 0 0 0 0 0 0 0 0 0 0 0 0 0 0 0 0 0 0 0 0 0 0 0 0 0 0 0 0 0 0
0 0 0 0 0 0 0 0 0 0 0 0 0 0 0 0 0 0 0 0 0 0 0 0 0 0 0 0 0 0 0 0 0 0 0 0 0 0 0 0 0 0 0 0 0 0 0 0 0
0 0 0 0 0 0 0 0 0 0 0 0 0 0 0 0 0 0 0 0 0 0 0 0 0 0 0 0 0 0 0 0 0 0 0 0 0 0 0 0 0 0 0 0 0 0 0 0 0
0 0 0 0 0 0 0 0 0 0 0 0 0 0 0 0 0 0 0 0 0 0 0 0 0 0 0 0 0 0 0 0 0 0 0 0 0 0 0 0 0 0 0 0 0 0 0 0 0
0 0 0 0 0 0 0 0 0 0 0 0 0 0 0 0 0 0 0 0 0 0 0 0 0 0 0 0 0 0 0 0 0 0 0 0 0 0 0 0 0 0 0 0 0 0 0 0 0
0 0 4 0 0 0 0 0 0 0 0 0 0 0 0 0 0 0 0 0 0 0 0 0 0 0 0 0 0 0 0 0 0 0 0 0 0 0 0 0 0 0 0 0 0 0 0 0 0
0 0 9 2 7 0 0 0 0 0 0 0 0 0 0 0 0 0 0 0 0 0 0 0 0 0 0 0 0 0 0 0 0 0 0 0 0 0 0 0 0 0 0 0 0 0 0 0 0
0 0 0 0 0 0 0 0 0 0 0 0 0 0 0 0 0 0 0 0 0 0 0 0 0 0 0 0 0 0 0 0 0 0 0 0 0 0 0 0 0 0 0 0 0 0 0 0 0
0 0 0 0 0 0 0 0 0 0 0 0 0 0 0 0 0 0 0 0 0 0 0 0 0 0 0 0 0 0 0 0 0 0 0 0 0 0 0 0 0 0 0 0 0 0 0 0 0
0 0 0 0 4 11 0 0 0 0 0 0 0 0 0 0 0 0 0 0 0 0 0 0 0 0 0 0 0 0 0 0 0 0 0 0 0 0 0 0 0 0 0 0 0 0 0 0 0
0 0 2 0 0 2 0 0 0 0 0 0 0 0 0 0 0 0 0 0 0 0 0 0 0 0 0 0 0 0 0 0 0 0 0 0 0 0 0 0 0 0 0 0 0 0 0 0 0
0 0 0 13 0 0 0 0 0 0 0 0 0 0 0 0 0 0 0 0 0 0 0 0 0 0 0 0 0 0 0 0 0 0 0 0 0 0 0 0 0 0 0 0 0 0 0 0 0
CIN
-0 -0 -0 -0 -0 -0 -0 -0 -0 -0 -0 -211 -247 -217 -198 -337 -216 -123 -721 -624 -395 -313 -231 -193 -177 -144 -102 -95 -111 -141 -170 -223 -284 -328 -350 -361 -382 -409 -366 -0 -0 -0 -0 -0 -0 -0 -0 -0 -0
-0 -0 -0 -0 -0 -0 -0 -0 -0 -0 -0 -229 -231 -300 -243 -199 -0 -777 -598 -433 -348 -340 -267 -229 -183 -134 -148 -165 -184 -202 -227 -320 -398 -468 -520 -582 -193 -0 -0 -0 -0 -0 -0 -0 -0 -0 -0 -0 -0
-0 -0 -0 -0 -0 -0 -0 -0 -0 -0 -0 -115 -162 -403 -438 -419 -0 -699 -645 -443 -399 -387 -295 -242 -214 -192 -237 -258 -285 -313 -397 -482 -588 -367 -232 -0 -0 -0 -0 -0 -0 -0 -0 -0 -0 -0 -0 -0 -0
-0 -0 -0 -0 -0 -0 -0 -0 -0 -0 -0 -179 -256 -210 -638 -0 -705 -0 -562 -514 -457 -441 -360 -326 -314 -304 -348 -406 -474 -539 -14 -17 -0 -0 -0 -0 -0 -0 -0 -0 -0 -0 -0 -0 -0 -0 -0 -0 -0
-0 -0 -0 -0 -0 -0 -0 -0 -0 -0 -0 -0 -300 -326 -483 -0 -0 -203 -467 -588 -488 -541 -494 -457 -437 -436 -472 -0 -0 -0 -0 -0 -0 -0 -0 -0 -0 -0 -0 -0 -0 -0 -0 -0 -0 -0 -0 -0 -0
-0 -0 -0 -0 -0 -0 -0 -0 -0 -0 -0 -0 -292 -381 -376 -0 -0 -0 -0 -0 -0 -0 -0 -0 -0 -1 -0 -0 -0 -0 -0 -0 -0 -0 -0 -0 -0 -0 -0 -0 -0 -0 -0 -0 -0 -0 -0 -0 -0
-0 -0 -0 -0 -0 -0 -0 -0 -0 -0 -0 -0 -0 -284 -0 -0 -0 -0 -0 -0 -0 -0 -0 -0 -1 -0 -0 -0 -0 -0 -0 -0 -0 -0 -0 -0 -0 -0 -0 -0 -0 -0 -0 -0 -0 -0 -0 -0 -0
-0 -0 -0 -0 -0 -0 -0 -0 -0 -0 -206 -0 -0 -73 -2 -0 -0 -0 -0 -0 -0 -0 -0 -0 -0 -0 -0 -0 -0 -0 -0 -0 -0 -0 -0 -0 -0 -0 -0 -0 -0 -0 -0 -0 -0 -0 -0 -0 -0
-0 -0 -0 -0 -0 -0 -0 -0 -0 -0 -135 -0 -0 -0 -0 -0 -0 -0 -0 -0 -0 -0 -0 -0 -0 -0 -0 -0 -0 -0 -0 -0 -0 -0 -0 -0 -0 -0 -0 -0 -0 -0 -0 -0 -0 -0 -0 -0 -0
-0 -0 -0 -0 -0 -0 -0 -0 -0 -0 -0 -47 -0 -0 -0 -0 -0 -0 -0 -0 -0 -0 -0 -0 -0 -0 -0 -0 -0 -0 -0 -0 -0 -0 -0 -0 -0 -0 -0 -0 -0 -0 -0 -0 -0 -0 -0 -0 -0
-0 -0 -0 -0 -0 -0 -0 -0 -0 -0 -0 -0 -59 -0 -0 -0 -0 -0 -0 -0 -0 -0 -0 -0 -0 -0 -0 -0 -0 -0 -0 -0 -0 -0 -0 -0 -0 -0 -0 -0 -0 -0 -0 -0 -0 -0 -0 -0 -0
-0 -0 -0 -0 -0 -0 -0 -0 -0 -0 -0 -0 -0 -0 -0 -0 -0 -0 -0 -0 -0 -0 -0 -0 -0 -0 -0 -0 -0 -0 -0 -0 -0 -0 -0 -0 -0 -0 -0 -0 -0 -0 -0 -0 -0 -0 -0 -0 -0
-0 -0 -0 -0 -0 -0 -0 -0 -0 -0 -0 -0 -0 -0 -0 -0 -0 -0 -0 -0 -0 -0 -0 -0 -0 -0 -0 -0 -0 -0 -0 -0 -0 -0 -0 -0 -0 -0 -0 -0 -0 -0 -0 -0 -0 -0 -0 -0 -0
-0 -0 -0 -0 -0 -0 -0 -0 -0 -0 -0 -0 -0 -0 -0 -0 -0 -0 -0 -0 -0 -0 -0 -0 -0 -0 -0 -0 -0 -0 -0 -0 -0 -0 -0 -0 -0 -0 -0 -0 -0 -0 -0 -0 -0 -0 -0 -0 -0
-0 -0 -0 -0 -0 -0 -0 -0 -0 -0 -0 -0 -0 -0 -0 -0 -0 -0 -0 -0 -0 -0 -0 -0 -0 -0 -0 -0 -0 -0 -0 -0 -0 -0 -0 -0 -0 -0 -0 -0 -0 -0 -0 -0 -0 -0 -0 -0 -0
-0 -0 -0 -0 -0 -0 -0 -0 -0 -0 -0 -0 -0 -0 -0 -0 -0 -0 -0 -0 -0 -0 -0 -0 -0 -0 -0 -0 -0 -0 -0 -0 -0 -0 -0 -0 -0 -0 -0 -0 -0 -0 -0 -0 -0 -0 -0 -0 -0
-0 -0 -0 -0 -0 -0 -0 -0 -0 -0 -0 -0 -0 -0 -0 -0 -0 -0 -0 -0 -0 -0 -0 -0 -0 -0 -0 -0 -0 -0 -0 -0 -0 -0 -0 -0 -0 -0 -0 -0 -0 -0 -0 -0 -0 -0 -0 -0 -0
-0 -0 -0 -0 -0 -0 -0 -0 -0 -0 -0 -0 -0 -0 -0 -0 -0 -0 -0 -0 -0 -0 -0 -0 -0 -0 -0 -0 -0 -0 -0 -0 -0 -0 -0 -0 -0 -0 -0 -0 -0 -0 -0 -0 -0 -0 -0 -0 -0
-0 -0 -0 -0 -0 -0 -0 -0 -0 -0 -0 -0 -0 -0 -0 -0 -0 -0 -0 -0 -0 -0 -0 -0 -0 -0 -0 -0 -0 -0 -0 -0 -0 -0 -0 -0 -0 -0 -0 -0 -0 -0 -0 -0 -0 -0 -0 -0 -0
-0 -0 -0 -0 -0 -0 -0 -0 -0 -0 -0 -0 -0 -0 -0 -0 -0 -0 -0 -0 -0 -0 -0 -0 -0 -0 -0 -0 -0 -0 -0 -0 -0 -0 -0 -0 -0 -0 -0 -0 -0 -0 -0 -0 -0 -0 -0 -0 -0
-0 -0 -0 -0 -0 -0 -0 -0 -0 -0 -0 -0 -0 -0 -0 -0 -0 -0 -0 -0 -0 -0 -0 -0 -0 -0 -0 -0 -0 -0 -0 -0 -0 -0 -0 -0 -0 -0 -0 -0 -0 -0 -0 -0 -0 -0 -0 -0 -0
-0 -0 -0 -0 -0 -0 -0 -0 -0 -0 -0 -0 -0 -0 -0 -0 -0 -0 -0 -0 -0 -0 -0 -0 -0 -0 -0 -0 -0 -0 -0 -0 -0 -0 -0 -0 -0 -0 -0 -0 -0 -0 -0 -0 -0 -0 -0 -0 -0
-0 -0 -0 -0 -0 -0 -0 -0 -0 -0 -0 -0 -0 -0 -0 -0 -0 -0 -0 -0 -0 -0 -0 -0 -0 -0 -0 -0 -0 -0 -0 -0 -0 -0 -0 -0 -0 -0 -0 -0 -0 -0 -0 -0 -0 -0 -0 -0 -0
-0 -0 -16 -11 -0 -0 -0 -0 -0 -0 -0 -0 -0 -0 -0 -0 -0 -0 -0 -0 -0 -0 -0 -0 -0 -0 -0 -0 -0 -0 -0 -0 -0 -0 -0 -0 -0 -0 -0 -0 -0 -0 -0 -0 -0 -0 -0 -0 -0
-0 -0 -3 -1 -4 -0 -0 -0 -0 -0 -0 -0 -0 -0 -0 -0 -0 -0 -0 -0 -0 -0 -0 -0 -0 -0 -0 -0 -0 -0 -0 -0 -0 -0 -0 -0 -0 -0 -0 -0 -0 -0 -0 -0 -0 -0 -0 -0 -0
-0 -0 -0 -0 -0 -0 -0 -0 -0 -0 -0 -0 -0 -0 -0 -0 -0 -0 -0 -0 -0 -0 -0 -0 -0 -0 -0 -0 -0 -0 -0 -0 -0 -0 -0 -0 -0 -0 -0 -0 -0 -0 -0 -0 -0 -0 -0 -0 -0
-0 -0 -0 -1 -0 -1 -0 -0 -0 -0 -0 -0 -0 -0 -0 -0 -0 -0 -0 -0 -0 -0 -0 -0 -0 -0 -0 -0 -0 -0 -0 -0 -0 -0 -0 -0 -0 -0 -0 -0 -0 -0 -0 -0 -0 -0 -0 -0 -0
-0 -0 -0 -0 -5 -5 -0 -0 -0 -0 -0 -0 -0 -0 -0 -0 -0 -0 -0 -0 -0 -0 -0 -0 -0 -0 -0 -0 -0 -0 -0 -0 -0 -0 -0 -0 -0 -0 -0 -0 -0 -0 -0 -0 -0 -0 -0 -0 -0
-0 -0 -19 -0 -16 -22 -0 -0 -0 -0 -0 -0 -0 -0 -0 -0 -0 -0 -0 -0 -0 -0 -0 -0 -0 -0 -0 -0 -0 -0 -0 -0 -0 -0 -0 -0 -0 -0 -0 -0 -0 -0 -0 -0 -0 -0 -0 -0 -0
-0 -0 -0 -15 -0 -0 -0 -0 -0 -0 -0 -0 -0 -0 -0 -0 -0 -0 -0 -0 -0 -0 -0 -0 -0 -0 -0 -0 -0 -0 -0 -0 -0 -0 -0 -0 -0 -0 -0 -0 -0 -0 -0 -0 -0 -0 -0 -0 -0
Wind_Speed
15 15 15 14 11 14 15 11 14 15 21 18 16 14 14 14 12 18 12 8 5 6 7 6 5 5 5 4 4 4 4 5 7 9 11 12 13 13 14 14 16 17 18 20 21 22 23 24 25
14 14 16 12 11 12 14 8 7 14 17 13 15 16 16 14 18 17 11 6 4 4 5 5 4 4 5 5 4 3 4 5 6 8 10 11 12 13 14 14 15 17 19 21 22 23 24 26 26
14 15 10 9 10 8 13 6 5 15 18 10 15 16 16 16 16 8 9 5 4 3 3 4 4 4 5 3 4 4 4 5 6 8 9 11 12 13 13 14 16 18 20 22 23 24 25 26 26
13 13 14 11 8 9 7 1 2 25 19 13 11 14 17 18 10 11 5 4 4 3 3 3 2 3 4 4 4 4 4 5 6 8 9 11 11 12 13 15 16 18 20 22 23 25 25 26 26
15 14 14 16 11 14 4 7 6 20 8 6 5 10 14 14 13 9 7 7 6 4 3 2 2 2 3 3 4 4 4 4 6 7 9 11 11 12 13 15 17 19 21 22 24 25 25 26 26
14 14 18 16 14 17 12 5 26 12 9 1 0 5 10 13 8 7 8 8 6 6 4 3 2 1 2 3 3 3 3 5 6 7 9 10 11 12 14 16 18 19 21 23 24 24 26 26 26
15 17 19 17 19 28 18 16 26 29 5 3 5 4 15 6 5 6 5 6 6 3 2 1 1 2 2 3 3 3 3 4 5 7 8 10 12 13 15 17 19 19 22 23 23 25 26 26 27
14 16 21 19 21 23 18 20 29 28 11 7 4 6 11 4 6 6 6 6 4 2 1 1 2 2 3 3 3 3 3 4 5 7 8 9 12 13 15 17 18 20 21 22 23 25 26 27 27
11 20 21 20 19 19 29 32 23 20 10 9 7 8 11 10 10 7 6 5 6 3 2 1 2 2 2 3 3 3 3 5 5 7 9 10 11 13 16 16 18 20 21 22 24 25 26 27 28
13 18 18 17 18 23 30 27 27 20 12 10 11 12 4 8 9 7 9 9 10 9 9 6 4 3 2 2 2 3 4 5 6 7 9 11 11 13 14 16 18 20 21 22 24 26 27 28 29
20 16 20 19 19 17 16 41 28 23 10 8 6 1 5 8 8 7 7 9 12 11 8 7 6 4 2 0 1 2 3 4 6 6 8 10 11 13 14 16 18 20 21 23 25 26 28 29 29
28 20 19 21 18 23 25 34 28 16 12 9 5 5 7 11 12 12 11 10 10 9 9 7 5 4 2 1 1 0 1 3 4 5 7 8 10 12 14 16 18 20 22 23 25 27 28 29 29
24 26 25 15 21 27 34 31 32 21 15 15 6 5 11 13 11 9 8 9 10 10 9 8 7 6 4 2 2 2 2 3 3 5 7 8 9 11 14 16 18 19 21 24 25 26 28 29 29
25 33 40 31 22 26 30 35 30 25 17 13 8 9 11 14 13 9 10 11 12 10 10 9 9 7 5 4 4 4 4 4 5 6 6 7 8 11 13 16 18 20 22 23 24 26 27 28 28
28 32 33 26 25 26 25 29 22 24 16 14 11 9 10 14 13 16 13 13 12 10 10 10 9 8 6 5 4 4 4 4 5 6 7 7 8 11 13 15 17 20 22 23 24 25 27 29 27
37 32 32 23 24 25 21 29 17 22 17 16 13 11 11 15 18 14 12 11 12 10 12 11 10 9 8 7 5 4 4 5 6 7 8 9 9 11 13 15 18 20 22 23 25 28 29 29 28
24 40 37 33 22 26 23 40 38 18 17 18 16 15 14 14 15 17 15 14 13 12 12 11 10 10 9 7 6 5 4 5 5 7 8 9 10 11 13 15 17 19 21 23 25 28 28 29 26
32 34 36 34 25 25 30 36 35 29 20 17 16 17 17 16 20 18 16 14 14 14 13 12 10 10 9 8 6 6 6 6 5 5 5 7 8 10 12 14 15 17 21 23 24 25 27 27 23
34 38 39 38 32 37 42 49 41 38 23 20 18 18 20 21 21 18 16 15 14 14 15 14 12 11 11 10 9 9 9 9 8 8 7 7 8 9 11 12 15 18 21 23 23 24 27 29 23
31 36 37 43 35 39 41 54 38 33 35 28 23 22 22 23 21 20 19 18 17 16 15 16 15 12 11 11 11 12 10 11 10 7 7 6 7 9 10 12 15 17 19 21 23 24 23 26 27
34 35 37 41 41 44 44 62 43 35 32 31 28 24 21 21 24 22 22 23 20 20 19 18 17 14 12 10 9 10 11 10 10 9 8 7 6 8 10 11 14 16 18 20 22 24 24 23 25
39 33 36 39 39 41 26 53 34 35 30 27 27 25 21 20 22 24 23 22 23 22 19 19 18 15 13 11 10 10 10 11 11 7 5 5 5 7 9 11 13 14 16 19 21 21 22 21 21
39 34 34 35 39 44 38 32 44 28 28 26 27 29 27 24 22 22 24 25 24 21 21 20 18 17 15 14 12 11 9 11 7 6 4 4 5 6 8 10 12 14 16 17 18 20 20 20 21
32 32 33 33 32 40 34 28 36 30 33 31 28 28 27 25 24 25 24 21 21 19 20 20 20 16 14 11 11 10 11 9 8 8 6 5 4 6 8 10 12 13 15 16 17 18 18 19 20
26 26 36 40 37 41 25 27 34 29 26 27 34 33 26 26 23 22 21 21 21 22 22 22 22 20 15 13 11 13 12 11 10 9 8 5 3 5 6 8 10 12 14 15 16 16 18 19 20
33 29 34 44 40 39 29 36 31 30 30 32 33 36 37 36 28 25 23 22 21 21 22 22 22 20 18 15 14 15 13 11 12 10 8 5 3 3 5 7 10 11 13 14 15 16 17 17 18
29 30 32 38 33 37 34 31 28 26 27 28 28 27 29 28 23 21 20 21 20 20 21 23 21 18 16 16 16 17 14 12 11 10 7 5 3 2 4 6 8 10 12 13 14 15 16 17 17
26 21 26 26 39 44 38 37 35 29 27 27 25 26 25 23 19 16 12 14 16 17 19 20 21 20 17 16 14 15 14 11 10 9 8 6 3 2 3 5 7 9 10 12 13 14 15 15 16
27 28 27 27 31 38 42 38 25 24 23 26 27 27 28 27 24 18 15 11 12 15 17 20 21 18 17 16 14 12 11 11 10 10 9 8 5 3 2 4 5 7 8 11 12 13 13 13 14
27 29 30 37 38 36 36 37 18 21 23 24 26 29 32 31 26 23 19 16 16 14 14 18 20 23 19 16 15 13 12 11 11 11 10 8 5 3 3 3 4 5 8 10 10 11 11 12 13
Wind_Direction
329 333 333 344 351 343 331 348 339 342 333 329 335 334 334 339 346 331 2 3 81 101 99 104 86 81 70 72 64 48 16 21 27 30 33 33 33 29 24 13 10 9 4 359 355 351 345 339 335
334 334 328 354 340 327 329 357 23 5 343 347 343 335 338 342 327 331 343 12 88 92 83 86 78 70 73 72 58 44 33 30 27 29 31 32 31 21 19 12 6 2 359 355 351 349 345 342 337
335 326 351 355 333 303 329 360 12 354 346 333 335 336 337 338 336 5 351 38 65 50 70 79 72 63 68 59 62 62 50 40 29 28 28 27 24 17 15 7 2 358 352 348 346 344 342 341 338
338 336 335 323 293 321 336 237 249 252 336 326 325 331 331 326 356 349 58 46 61 57 82 83 65 56 74 75 74 69 53 35 28 21 20 19 17 13 11 3 358 354 350 349 347 345 342 338 336
327 333 317 317 309 318 295 227 299 249 284 312 312 322 338 338 357 58 65 75 88 73 77 59 45 57 77 76 72 55 34 20 20 19 20 14 7 8 5 360 357 354 351 349 347 344 343 341 339
321 327 313 308 309 317 322 321 323 260 229 292 247 336 341 333 28 68 77 84 86 96 86 76 91 86 83 75 58 25 7 360 4 8 10 17 4 6 2 358 357 355 351 351 348 348 344 342 340
310 312 307 310 309 297 310 339 326 285 16 131 99 353 328 356 62 85 71 79 87 86 85 64 28 65 65 74 68 47 16 11 8 5 6 8 4 4 3 360 357 357 352 352 353 348 345 343 341
316 315 306 305 304 300 313 328 326 318 354 36 69 347 336 133 104 84 91 93 92 95 289 301 321 337 3 16 37 41 30 11 5 0 2 7 3 4 3 1 359 357 357 356 355 349 347 345 342
322 305 299 299 301 295 298 306 335 344 346 340 342 343 341 131 122 106 116 120 131 142 176 148 114 99 67 48 42 28 19 354 352 359 356 354 360 3 0 5 1 360 358 357 354 353 351 348 345
305 302 298 300 302 299 299 309 313 327 322 321 326 332 54 138 149 148 151 155 161 161 159 160 156 147 117 44 25 6 347 339 342 350 354 358 2 2 3 2 1 360 359 357 354 353 351 348 345
299 291 304 301 298 296 282 283 305 309 286 308 291 298 142 158 168 178 180 172 171 167 168 172 162 161 158 25 36 351 345 355 353 357 354 357 360 360 359 358 356 355 354 353 353 352 350 348 345
297 302 301 303 306 304 299 296 302 295 273 279 274 208 174 179 183 183 189 187 188 187 183 177 178 174 170 179 289 309 345 358 356 351 351 354 353 353 349 349 351 352 352 353 352 351 350 348 346
300 301 301 298 303 301 297 295 297 293 287 303 290 228 198 196 195 196 190 186 185 190 194 191 185 178 184 207 269 287 303 330 345 339 343 347 349 348 347 348 350 354 354 350 350 350 349 348 347
302 298 291 297 299 300 296 290 294 297 300 295 274 239 214 204 200 201 198 192 191 197 198 193 191 195 216 240 258 279 302 318 323 330 340 349 352 349 350 350 350 349 349 349 350 350 348 347 347
301 300 298 297 299 298 298 290 282 294 292 284 271 246 221 210 204 201 204 199 201 211 212 201 204 211 226 226 234 260 295 312 317 325 337 345 347 347 351 352 350 347 347 348 349 351 349 345 348
294 299 298 303 298 298 296 274 276 292 281 275 265 251 226 217 213 217 223 220 211 217 214 217 221 219 231 234 232 257 286 308 316 322 329 334 341 349 350 348 345 346 346 347 347 343 343 344 346
298 287 290 298 297 295 291 288 287 296 279 266 259 249 236 234 232 224 228 226 222 224 210 216 224 225 222 218 224 246 274 293 305 312 320 329 340 350 347 350 349 351 350 349 346 345 346 345 348
293 291 291 294 304 300 291 290 295 295 291 271 257 252 254 239 221 225 234 233 227 223 217 218 228 225 219 221 229 254 269 282 295 307 320 334 341 349 350 352 353 353 349 347 349 351 351 348 349
288 288 289 292 299 295 288 283 289 290 292 282 271 261 257 247 233 241 237 234 229 224 222 224 226 221 218 228 231 251 258 270 285 295 312 332 342 351 353 354 351 350 347 346 349 351 349 348 348
282 286 288 289 295 291 291 280 288 287 287 287 278 273 265 257 249 237 233 228 224 223 221 223 223 220 230 235 248 261 257 274 280 294 312 328 338 344 347 345 345 347 349 351 351 349 348 350 350
278 280 288 288 292 288 292 269 287 286 281 281 283 276 265 250 241 236 233 228 230 223 214 209 216 214 225 230 246 261 271 273 281 283 296 317 344 348 348 351 352 354 355 353 351 350 349 348 354
278 282 285 289 291 288 294 289 273 291 283 278 279 279 270 263 250 246 240 235 228 226 218 209 204 207 222 224 235 217 234 247 267 268 287 318 341 348 354 355 355 358 357 355 354 355 354 355 354
276 285 285 287 287 290 283 287 254 299 292 289 285 280 274 265 253 248 239 230 229 226 224 218 219 215 212 211 224 230 232 257 244 257 270 305 337 354 358 359 359 357 357 358 359 358 359 1 360
280 285 286 287 286 280 277 275 283 292 293 292 290 286 280 269 256 251 247 244 236 227 221 215 223 225 218 230 230 228 229 226 225 247 260 285 322 353 357 357 357 358 360 1 360 3 5 4 2
277 282 284 284 276 278 287 277 266 298 304 300 294 296 287 280 268 259 248 238 232 229 225 221 219 225 219 235 235 253 245 233 226 233 250 259 303 337 353 359 360 356 1 1 5 6 3 1 0
264 263 271 279 280 284 281 280 283 300 299 299 299 295 291 284 277 266 255 244 236 230 228 223 219 219 218 228 240 243 235 234 243 238 236 243 272 322 349 357 1 1 359 4 8 2 3 4 5
280 266 257 277 281 288 284 288 291 302 308 309 306 309 306 304 283 271 261 254 244 230 227 223 219 226 232 246 242 240 239 233 227 228 230 234 264 326 349 359 5 359 0 7 1 1 2 4 7
267 286 278 269 276 278 281 284 282 292 300 305 311 314 313 312 310 297 275 260 249 237 232 217 211 214 230 243 247 244 245 233 227 218 211 211 213 281 329 352 0 1 8 1 360 359 3 7 10
276 268 277 280 276 278 282 283 291 293 300 299 304 313 317 313 306 301 293 274 255 242 237 218 213 208 243 248 244 230 231 224 216 214 203 196 206 227 291 338 353 359 3 354 358 2 5 9 15
274 273 272 272 276 277 278 280 291 296 300 305 307 311 310 308 315 301 293 281 274 256 228 209 227 246 241 239 240 234 237 224 215 203 196 200 205 239 270 325 340 351 345 354 4 6 12 13 17